7 * 24
多渠道服务支持
ZHUHAI-1 OHS-01(珠海一号OHS-01)是中国于2018年4月26日发射的高光谱遥感卫星,隶属于珠海一号商业高光谱卫星星座,由欧比特宇航科技自主研制运营。卫星运行于500公里高度太阳同步轨道,采用三轴稳定控制,具备10米空间分辨率与10纳米光谱分辨率,可提供270个波段的高光谱数据,广泛服务于环境监测、农业估产、资源勘探等领域,设计寿命5年,目前已超期稳定服役,为我国商业遥感应用提供重要支撑。
中国
(CN)
| 数据来源 | 国际轨道数据 |
| 星历时间: | 2024-11-11T05:53:27+0800 轨道信息已过期669天 |
| 半长轴: | 6525.477km |
| 偏心率: | 0.0009607 |
| 轨道倾角: | 97.075° |
| 近地点辐角 | 251.776° |
| 升交点赤经 | 4.362° |
| 平近点角 | 108.249° |
| 近地点: | 141.072km |
| 远地点: | 153.612km |
| 周期: | 87.434分钟 |
| 每日圈数: | 16.469651 |